Location: *
(47.6569°N, 7.4256°E)
Time: 22:41:29
(UTC+00:00)

SL-4 R/B - Pass Details

Date: 14 December 2019
Orbit: 428 x 667 km, 51.6° (Epoch: 24 January)

Event Time Altitude Azimuth Distance (km) Brightness Sun altitude
Rises 16:41:05 0° 282° (WNW) 2,498 6.4 -10.0°
Reaches altitude 10° 16:43:13 10° 289° (WNW) 1,655 5.2 -10.3°
Maximum altitude 16:46:49 45° 3° (N) 695 2.3 -10.9°
Enters shadow 16:49:40 17° 72° (ENE) 1,390 3.4 -11.3°
